This demonstration page uses our WeatherBlox Daily Observations layout. Learn more.

Left ArrowRight Arrow

44.8408, -93.29828

Hourly Observations for September 3, 2021

Temp ( °F °C ) Dew Point ( °F °C ) Humidity (%) Winds ( mph kmh ) Pressure ( in mb ) Visibility ( mi km ) Precip ( " mm )
12:53 am 00:53 Cloudy with Light Rain 63 17.2 61 16.1 93 93 SE 8 13 30.01 1016 10 16 0.04 1.02
1:53 am 01:53 Cloudy with Rain 63 17.2 61 16.1 93 93 ESE 7 11 30.01 1016 4 6 0.10 2.54
2:53 am 02:53 Cloudy with Heavy Rain 62 16.7 60 15.6 93 93 SSE 14 22 30.00 1016 3 4 0.24 6.10
2:57 am 02:57 Cloudy with Heavy Rain 62 16.7 60 15.6 93 93 SSE 16 26 30.00 1016 2 3 0.02 0.51
3:09 am 03:09 Cloudy with Heavy Rain 62 16.7 60 15.6 93 93 SSE 10 17 30.00 1016 2 3 0.14 3.56
3:53 am 03:53 Cloudy with Rain 60 15.6 59 15 96 96 ESE 9 15 30.00 1016 2 3 0.35 8.89
4:01 am 04:01 Cloudy with Heavy Rain 61 16.1 59 15 93 93 ESE 14 22 29.99 1016 3 5 0.04 1.02
4:53 am 04:53 Cloudy with Light Rain 61 16.1 58 14.4 90 90 E 14 22 29.98 1015 4 6 0.10 2.54
5:41 am 05:41 Cloudy with Light Rain 61 16.1 59 15 93 93 ESE 16 26 29.97 1015 8 13 0.02 0.51
5:49 am 05:49 Cloudy with Light Rain 61 16 59 15 94 94 ESE 16 26 29.97 1015 9 14 0.02 0.51
5:53 am 05:53 Cloudy with Light Rain 61 16.1 59 15 93 93 ESE 17 28 29.97 1015 9 14 0.02 0.51
6:23 am 06:23 Cloudy with Light Rain 61 16.1 58 14.4 90 90 SE 16 26 29.97 1015 8 13 0.01 0.25
6:53 am 06:53 Cloudy with Light Rain 60 15.6 57 13.9 90 90 ESE 16 26 29.97 1015 9 14 0.01 0.25
7:33 am 07:33 Cloudy with Light Rain 60 15.6 58 14.4 93 93 ESE 13 20 29.96 1015 5 8 0.00 0.00
7:42 am 07:42 Cloudy with Drizzle 60 15.6 58 14.4 93 93 ESE 12 19 29.96 1015 5 8 0.00 0.00
7:53 am 07:53 Cloudy with Drizzle 60 15.6 58 14.4 93 93 ESE 13 20 29.96 1015 5 8 0.00 0.00
8:53 am 08:53 Cloudy with Drizzle 60 15.6 58 14.4 93 93 SE 13 20 29.96 1015 6 10 0.00 0.00
9:27 am 09:27 Cloudy with Drizzle 60 15.6 59 15 96 96 ESE 16 26 29.95 1014 5 8 0.00 0.00
9:53 am 09:53 Cloudy with Drizzle 61 16.1 59 15 93 93 ESE 14 22 29.96 1015 5 8 0.00 0.00
10:53 am 10:53 Cloudy with Drizzle 61 16.1 60 15.6 97 97 ESE 12 19 29.96 1015 4 6 0.00 0.00
11:53 am 11:53 Cloudy with Drizzle 61 16.1 60 15.6 97 97 ESE 12 19 29.96 1014 5 8 0.00 0.00
12:53 pm 12:53 Cloudy with Drizzle 62 16.7 61 16.1 96 96 ESE 13 20 29.95 1014 5 8 0.00 0.00
1:53 pm 13:53 Cloudy with Drizzle 63 17.2 61 16.1 93 93 ESE 9 15 29.95 1014 6 10 0.00 0.00
2:53 pm 14:53 Cloudy with Mist and Fog 63 17.2 61 16.1 93 93 ESE 9 15 29.94 1014 6 10 0.00 0.00
3:53 pm 15:53 Cloudy with Mist and Fog 63 17.2 61 16.1 93 93 ESE 12 19 29.92 1013 6 10 0.00 0.00
4:53 pm 16:53 Cloudy 63 17.2 61 16.1 93 93 E 8 13 29.92 1013 7 11 0.00 0.00
5:53 pm 17:53 Cloudy 63 17.2 61 16.1 93 93 E 9 15 29.92 1013 7 11 0.00 0.00
6:53 pm 18:53 Cloudy 63 17.2 61 16.1 93 93 E 8 13 29.93 1014 8 13 0.00 0.00
7:53 pm 19:53 Cloudy with Mist and Fog 63 17.2 61 16.1 93 93 ENE 6 9 29.93 1014 6 10 0.00 0.00
8:53 pm 20:53 Cloudy 62 16.7 61 16.1 96 96 ENE 6 9 29.94 1014 7 11 0.00 0.00
9:53 pm 21:53 Cloudy 62 16.7 60 15.6 93 93 E 5 7 29.94 1014 8 13 0.00 0.00
10:53 pm 22:53 Cloudy 62 16.7 60 15.6 93 93 NE 5 7 29.95 1014 8 13 0.00 0.00
11:17 pm 23:17 Cloudy 62 16.7 60 15.6 93 93 ENE 5 7 29.94 1014 7 11 0.00 0.00
11:53 pm 23:53 Cloudy 62 16.7 60 15.6 93 93 NNE 3 6 29.94 1014 7 11 0.00 0.00

Powered by AerisWeather